Regional Weather Roundup
Issued by NWS Charleston, WV

Home | Current Version | Previous Version | Text Only | Print | Product List | Glossary Off
Versions: 1 2 3 4 5 6 7 8 9 10 11 12 13 14 15 16 17 18 19 20 21 22 23 24 25 26 27 28 29 30 31 32 33 34 35 36 37 38 39 40 41 42 43 44 45 46 47 48 49 50

000
ASUS41 KRLX 260210
RWRRLX
West Virginia Regional Weather Roundup
National Weather Service Charleston WV
900 PM EST TUE NOV 25 2014

Note: "fair" indicates few or no clouds below 12,000 feet with no
significant weather and/or obstructions to visibility.

WVZ003-260300-
Northern Panhandle of West Virginia

CITY           SKY/WX    TMP DP  RH WIND       PRES   REMARKS
WHEELING       CLEAR     35  24  64 N6        30.16S
$$

WVZ009-260300-
Northwest West Virginia

CITY           SKY/WX    TMP DP  RH WIND       PRES   REMARKS
PARKERSBURG    PTCLDY    37  27  67 N5        30.18S
$$

WVZ006-260300-
Western West Virginia

CITY           SKY/WX    TMP DP  RH WIND       PRES   REMARKS
HUNTINGTON     PTCLDY    42  29  59 N3        30.13R
$$

WVZ015-260300-
West Central West Virginia

CITY           SKY/WX    TMP DP  RH WIND       PRES   REMARKS
CHARLESTON     MOCLDY    45  27  49 VRB3      30.13R
$$

WVZ022-031-260300-
North Central West Virginia

CITY           SKY/WX    TMP DP  RH WIND       PRES   REMARKS
CLARKSBURG     CLEAR     37  29  72 N7        30.14R
MORGANTOWN     CLEAR     37  24  59 N9        30.16R
$$

WVZ025-035-042-045-260300-
Southern West Virginia

CITY           SKY/WX    TMP DP  RH WIND       PRES   REMARKS
BECKLEY        CLOUDY    40  25  55 N3        30.09R
LOGAN            N/A     45  27  49 N6        30.11R
BLUEFIELD      CLOUDY    44  22  41 CALM      30.08F
LEWISBURG      CLOUDY    38  26  62 N5        30.06F
$$

WVZ047-260300-
Northern Mountains of West Virginia

CITY           SKY/WX    TMP DP  RH WIND       PRES   REMARKS
ELKINS         PTCLDY    31  27  85 CALM      30.12R
$$

WVZ052-260300-
Eastern Panhandle of West Virginia

CITY           SKY/WX    TMP DP  RH WIND       PRES   REMARKS
MARTINSBURG    PTCLDY    39  27  62 CALM      30.12R
PETERSBURG     MOCLDY    35  28  77 W5        30.14R
$$


USA.gov is the U.S. government's official web portal to all federal, state and local government web resources and services.